Showing default

OPS 9312 (IDSCS 2), 2216

Orbit data source: Space-Track

OPS 9312 (IDSCS 2), 2216 is a payload satellite owned by USAF SSD (US) in GEO that was launched on Thu, 16 Jun 1966 UTC via a TITAN IIIC launch vehicle from the Air Force Eastern Test Range (AFETR). Payload-class satellites include a variety of spacecraft equipped with specific instruments for various scientific and technological missions. These include communications satellites like Starlink; space stations such as the ISS; scientific satellites like the Hubble; Earth observation satellites from companies like Planet Labs, Umbra, and HawkEye 360; GPS; miniature CubeSats for education and research; and military/defense satellites.

Loading next visibility...
Identifier
2216, 1966-053C
Orbit
GEO
Country
Flag of USUS
Related business
Manufacturer
Philco-Ford WDL
Mission
Non-operational spacecraft
Bus & Motor
IDCSP, Unknown motor
Mass
45 kg wet, 45 kg dry
Launch date (UTC)
1966-06-16 (60 years ago)
Launch vehicle
TITAN IIIC
Launch site
Air Force Eastern Test Range (AFETR)
Object type
Payload
Rocket body
Debris
Shape & HBR
Unknown
Radar Cross Section
Medium (>0.1 m² and <1 m²)

Expand to show TLE details & history
Last TLE update: 6 hours ago

TLE from 6 hours ago
0 OPS 9312 (IDSCS 2)
1 02216U 66053C   26127.24182905 -.00000105  00000-0  00000-0 0  9997
2 02216   8.5832  44.2380 0031612 219.3916 282.3495  1.07851681 48826
Epoch: 2026-05-07T05:48Z
TLE epoch observation values (Epoch: 2026-05-07T05:48:14.029Z)
Latitude
5.33571°
Longitude
-126.20667°
Altitude
33,758.795 km
Speed
3.153 km/s
True Right ascension
12h 23m 46s
True Declination
5° 19' 48"
Sunlit
Object was in daylight at epoch
Visualization orbit readout
Latitude
Unknown
Longitude
Unknown
Altitude
Unknown
Speed
Unknown
Apparent Right ascension
Unknown
Apparent Declination
Unknown
Sunlit
N/A
Visualization observer readout
Local Sidereal Time
19:59:41
Azimuth
Unknown
Elevation
Unknown
Doppler factor
Unknown
Orbital elements
Apogee altitude
33,915.18 km
Perigee altitude
33,661.232 km
Semi-major axis
40,166.343 km
Eccentricity
0.00316
Inclination
8.5832°
RAAN
44.238°
Arg. of periapsis
219.3916°
True anomaly
281.99534°
Mean anomaly
282.3495°
Eccentric anomaly
282.17245°
Mean motion
0.26962 °/min
Orbital period
1,335.22 mins
BSTAR
0
Loading maneuver chart data...
Computing Atmospheric mass density...
Loading historical data...
Loading historical data...
Loading historical data...
Loading historical data...
Loading historical data...
Loading historical data...
Loading historical data...

Documentation

Showing up to 5 results
|